{"data":{"norad_id":68156,"intl_designator":"2026-049Q","name":"STARLINK-36313","alt_names":[],"object_type":"PAYLOAD","status":"ACTIVE","operator":null,"country":"US","launch_date":"2026-03-13","launch_site_code":"AFWTR","launch_vehicle":null,"mission":null,"orbit_class":"UNKNOWN","rcs_meters":null,"size_class":null,"mass_kg":null,"dimensions":null,"purposes":["comms"],"wikipedia_slug":null,"has_3d_model":false,"image_url":null,"decayed_at":null,"tle_current":{"epoch":"2026-05-25T00:54:34.405344Z","epoch_age_seconds":68866,"freshness":"FRESH","line1":"1 68156U 26049Q   26145.03789821  .00021306  00000+0  66027-3 0  9998","line2":"2 68156  97.2843 166.6339 0001728  93.2799 266.8642 15.33452016 11345","mean_motion":15.33452016,"eccentricity":0.0001728,"inclination_deg":97.2843,"raan_deg":166.6339,"arg_perigee_deg":93.2799,"mean_anomaly_deg":266.8642,"bstar":0.00066027,"rev_number":1134,"period_min":93.905775007961,"perigee_km":464.33971555088,"apogee_km":466.70488420492,"semimajor_km":6843.6592998779,"source":"CELESTRAK","updated_at":"2026-05-25T13:38:21.849445Z"}}}